Regional Weather Roundup
Issued by NWS

Home | Current Version | Previous Version | Graphics & Text | Print | Product List | Glossary Off
Versions: 1 2 3 4 5 6 7 8 9 10 11 12 13 14 15 16 17 18 19 20 21 22 23 24 25 26 27 28 29 30 31 32 33 34 35 36 37 38 39 40 41 42 43 44 45 46 47 48 49 50

000
ASUS43 KMKX 211311
RWRWI

WISCONSIN REGIONAL WEATHER ROUNDUP
NATIONAL WEATHER SERVICE MILWAUKEE/SULLIVAN WI
800 AM CDT FRI JUL 21 2017

NOTE: "FAIR" INDICATES FEW OR NO CLOUDS BELOW 12,000 FEET WITH NO
SIGNIFICANT WEATHER AND/OR OBSTRUCTIONS TO VISIBILITY.

WIZ001-002-006>008-014>016-023>028-211400-
NORTHWEST WISCONSIN

CITY           SKY/WX    TMP DP  RH WIND       PRES   REMARKS
SUPERIOR ARPT  NOT AVBL
ASHLAND        MOSUNNY   64  63  96 S5        29.95S
HAYWARD        MOSUNNY   66  63  90 CALM      29.97R
SIREN          SUNNY     69  67  90 S5        29.96R
CUMBERLAND     SUNNY     66  64  94 CALM      29.98R FOG
RICE LAKE      SUNNY     67  66  97 CALM      29.98R FOG
CHETEK         SUNNY     68  67  98 CALM      29.97R
LADYSMITH      SUNNY     67  66  96 SE3       30.00R
EAU CLAIRE     SUNNY     69  67  93 NE3       29.95R FOG
MENOMONIE      CLOUDY    67  67  99 CALM      29.95S FOG
NEW RICHMOND   PTSUNNY   68  68  99 E3        29.94S
OSCEOLA        PTSUNNY   71  71 100 NE3       29.97R
$$

WIZ003>005-009-010-017-018-211400-
NORTH CENTRAL WISCONSIN

CITY           SKY/WX    TMP DP  RH WIND       PRES   REMARKS
MANITOWISH WTR CLOUDY    65  65 100 CALM      29.98R
ARBOR VITAE    SUNNY     72  68  86 SW5       29.98S
WOODRUFF       SUNNY     72  68  86 SW5       29.98S
RHINELANDER    SUNNY     68  65  90 CALM      29.99F
EAGLE RIVER    SUNNY     68  65  89 S6        29.98F
LAND O LAKES   SUNNY     66  63  89 S3        30.00S
PHILLIPS       SUNNY     68  64  89 CALM      29.99R
TOMAHAWK         N/A     66  64  93 CALM      30.00R
MEDFORD        SUNNY     67  66  95 CALM      30.00R
MERRILL        SUNNY     65  64  98 CALM      30.00R
$$

WIZ029-030-035-036-043>047-211400-
CENTRAL WISCONSIN

CITY           SKY/WX    TMP DP  RH WIND       PRES   REMARKS
WAUSAU         SUNNY     68  66  93 CALM      29.98R
MOSINEE        MOSUNNY   66  66 100 CALM      29.99S FOG
MARSHFIELD     SUNNY     72  66  81 E5        29.98R
STEVENS POINT  MOSUNNY   68  67  99 CALM      30.00R FOG
WAUPACA        CLOUDY    69  69  98 CALM      29.98S
WAUTOMA        CLOUDY    69  67  93 CALM      29.98S
WISC RAPIDS    CLOUDY    69  68  96 E5        29.99R
CAMP DOUGLAS   PTSUNNY   68  68 100 S7        29.97R FOG
$$

WIZ011>013-019>022-031-037>040-048>050-211400-
NORTHEAST WISCONSIN

CITY           SKY/WX    TMP DP  RH WIND       PRES   REMARKS
ANTIGO         SUNNY     69  65  86 S5        30.00F
SHAWANO        MOSUNNY   71  65  83 CALM      29.97S
OCONTO         MOSUNNY   70  66  86 CALM      29.96F
STURGEON BAY     N/A     72  67  84 MISG      29.97F
GREEN BAY      PTSUNNY   70  69  97 CALM      29.97F
MANITOWOC      PTSUNNY   74  68  81 CALM      29.98F
APPLETON       PTSUNNY   70  66  88 CALM      29.97S
CLINTONVILLE   PTSUNNY   68  64  88 CALM      29.97F
OSHKOSH        MOSUNNY   72  68  87 SE3       29.97F
$$

WIZ032>034-041-042-053>061-211400-
SOUTHWEST WISCONSIN

CITY           SKY/WX    TMP DP  RH WIND       PRES   REMARKS
LA CROSSE      CLOUDY    72  69  90 S3        29.94R
SPARTA         CLOUDY    64  64 100 CALM      29.97R
VIROQUA        CLOUDY    69  69  98 SE9       29.98S
BOSCOBEL       CLOUDY    70  69  97 CALM      29.97R FOG
PRAIRIE DU CHI CLOUDY    71  69  93 E5        29.92F
PLATTEVILLE    CLOUDY    71  71 100 CALM      29.99R
$$

WIZ056-057-062-063-064-067-068-211400-
SOUTH CENTRAL WISCONSIN

CITY           SKY/WX    TMP DP  RH WIND       PRES   REMARKS
REEDSBURG      PTSUNNY   69  69 100 CALM      29.97S
BARABOO/DELLS  PTSUNNY   71  70  96 SE3       29.97S
LONE ROCK      CLOUDY    70  69  97 S3        29.97R
MINERAL POINT  CLOUDY    72  72 100 CALM      29.99R
MADISON        PTSUNNY   74  69  85 E5        29.96F
MIDDLETON      PTSUNNY   73  73 100 CALM      29.98S
WATERTOWN      MOSUNNY   72  72 100 E6        29.97F
MONROE         CLOUDY    72  70  94 SE3       29.98S
JANESVILLE     PTSUNNY   75  75 100 E5        29.96S
$$

WIZ051-052-058>065-066-070>072-211400-
SOUTHEAST WISCONSIN

CITY           SKY/WX    TMP DP  RH WIND       PRES   REMARKS
MILWAUKEE      CLOUDY    74  70  87 S8        29.98S
WAUKESHA       SUNNY     73  70  88 CALM      30.00S
MILWAUKEE/TIMM SUNNY     75  64  69 CALM      29.99S
RACINE         MOSUNNY   75  72  90 E3        29.99F
KENOSHA        PTSUNNY   74  71  91 NE6       29.98F
FOND DU LAC    MOSUNNY   72  68  87 CALM      29.98F
SHEBOYGAN      CLOUDY    71  71 100 CALM      29.98F FOG
WEST BEND      MOSUNNY   70  70 100 CALM      29.99S
JUNEAU         CLOUDY    73  69  86 CALM      29.99S
$$

LSZ147-162-211400-
LAKE SUPERIOR

STATION/POSITION TIME  TEMP    WIND        PRES    WAVE
                       AIR SEA DIR/SP/G            HT/PER
                 (UTC) (F)     (DEG/KT/KT) (MB)    (FT/S)
W MID LAKE BUOY  1250   54 47   20/  6/  8 1013.5F   0
DEVILS ISLAND    1200   62      30/  6/  6 1014.0R
SAXON HARBOR     1230   65     200/  3/  5 1012.9F
$$

LMZ867-665-643>646-211400-
LAKE MICHIGAN

STATION/POSITION TIME  TEMP    WIND        PRES    WAVE
                       AIR SEA DIR/SP/G            HT/PER
                 (UTC) (F)     (DEG/KT/KT) (MB)    (FT/S)
CHAMBERS ISLAND  1240   72     190/  4/  7 1014.2F
S GREEN BAY BUOY 1230   72 72  210/  2/  2 1014.7F
N MID LAKE BUOY  1250   67 65  190/ 10/ 12 1015.0F   1
NORTHPORT PIER   1240   72     240/  3/  5 1014.9S
KEWAUNEE LAKESHO 1248   73        CALM     1014.2F
SHEBOYGAN LAKESH 1300   69      20/  3/  3 1014.5F
PORT WASHINGTON  1240   77     300/  3/  6 1015.9S
ATWATER BUOY     1109   70 67  340/  4/  4 1015.4F
MILWAUKEE LAKESH 1250   70     130/  6/  7   N/A
S MID LAKE BUOY  1250   71 70  290/  2/  2 1015.2F   0
KENOSHA   LAKESH 1300   70      40/  4/  4 1014.9
$$

TC  - TEMPERATURE IN CELSIUS
VSB - VISIBILITY IN STATUTE MILES
WCI - WIND CHILL INDEX
HX  - HEAT INDEX




USA.gov is the U.S. government's official web portal to all federal, state and local government web resources and services.